sat.trackr.live / text

‹ back to catalog

STARLINK-36813

NORAD 67892 · 2026-035P

PAYLOAD ACTIVE UNKNOWN

§ Identity

Operator
Country
US
Launch date
2026-02-21
Launch site
AFWTR
Launch vehicle
Mass (kg)
RCS (m²)

Purposes: comms

External: N2YO · Heavens-Above · Gunter

§ Orbital elements

Epoch: 2026-05-24T18:37:17.696928Z

Period
93.91 min
Inclination
97.2847°
Eccentricity
0.0001581
Mean motion
15.33451248 rev/d
Perigee alt
464.4 km
Apogee alt
466.6 km
Semi-major
6,843.7 km
B*
6.7101e-4
RAAN
78.3882°
Arg perigee
87.1417°
Mean anomaly
273.0007°
Rev number
1,565

§ Raw data

STARLINK-368131 67892U 26035P   26144.77589927  .00021654  00000+0  67101-3 0  99942 67892  97.2847  78.3882 0001581  87.1417 273.0007 15.33451248 15652

JSON: /api/v1/satellites/67892 · /tle

For live sub-satellite position, see the globe view (requires WebGL).

§ Visibility from observer

Set your observer location to see the next 7 days of passes ≥ 10°. The values pass through the URL so the page stays shareable.

No JS? Fill the form by hand. The geolocation button needs JavaScript.